| time (UTC) | temp C | wind direction | speed KPH | gust KPH | rain 1hr cm | rain 24hr cm | rain mn cm | humidity % | barometer mb |
| 20260506044203 | -40 | 6.4 | 9.7 | 0.00 | 0.13 | 0.13 | 14 | 1006.6 | |
| 20260506042957 | -40 | 8.0 | 12.9 | 0.00 | 0.13 | 0.13 | 14 | 1006.7 | |
| 20260506041749 | -40 | 9.7 | 14.5 | 0.00 | 0.13 | 0.13 | 14 | 1006.8 | |
| 20260506040544 | -40 | 9.7 | 12.9 | 0.00 | 0.13 | 0.13 | 14 | 1006.9 | |
| 20260506035338 | -40 | 11.3 | 16.1 | 0.00 | 0.13 | 0.13 | 14 | 1007.1 | |
| 20260506034132 | -40 | 9.7 | 14.5 | 0.00 | 0.13 | 0.13 | 14 | 1007.0 | |
| 20260506032927 | -40 | 8.0 | 12.9 | 0.00 | 0.13 | 0.13 | 14 | 1006.9 | |
| 20260506031720 | -40 | 8.0 | 9.7 | 0.00 | 0.13 | 0.13 | 14 | 1006.8 | |
| 20260506030514 | -40 | 8.0 | 12.9 | 0.00 | 0.13 | 0.13 | 14 | 1006.9 | |
| 20260506025308 | -40 | 8.0 | 12.9 | 0.00 | 0.13 | 0.13 | 14 | 1006.9 | |
| 20260506024103 | -40 | 8.0 | 12.9 | 0.00 | 0.13 | 0.13 | 14 | 1007.0 | |
| 20260506022855 | -40 | 8.0 | 12.9 | 0.00 | 0.13 | 0.13 | 14 | 1006.9 | |
| 20260506021651 | -40 | 6.4 | 12.9 | 0.00 | 0.13 | 0.13 | 14 | 1006.9 | |
| 20260506020445 | -40 | 6.4 | 8.0 | 0.00 | 0.13 | 0.13 | 14 | 1006.9 | |
| 20260506015237 | -40 | 6.4 | 9.7 | 0.00 | 0.13 | 0.13 | 14 | 1007.0 | |
| 20260506014031 | -40 | 6.4 | 9.7 | 0.00 | 0.13 | 0.13 | 14 | 1007.0 | |
| 20260506012902 | -40 | 4.8 | 8.0 | 0.00 | 0.13 | 0.13 | 14 | 1006.9 | |
| 20260506012825 | -40 | 4.8 | 8.0 | 0.00 | 0.13 | 0.13 | 14 | 1006.9 | |
| 20260506011619 | -40 | 4.8 | 9.7 | 0.00 | 0.13 | 0.13 | 14 | 1006.8 | |
| 20260506010413 | -40 | 8.0 | 14.5 | 0.00 | 0.13 | 0.13 | 14 | 1006.9 | |
| 20260506005207 | -40 | 9.7 | 16.1 | 0.00 | 0.13 | 0.13 | 14 | 1006.9 | |
| 20260506004001 | -40 | 11.3 | 19.3 | 0.00 | 0.13 | 0.13 | 14 | 1006.9 | |
| 20260506002755 | -40 | 9.7 | 16.1 | 0.00 | 0.13 | 0.13 | 14 | 1007.1 | |
| 20260506001639 | -40 | 11.3 | 17.7 | 0.00 | 0.13 | 0.13 | 14 | 1007.1 | |
| 20260506001549 | -40 | 11.3 | 17.7 | 0.00 | 0.13 | 0.13 | 14 | 1007.1 | |
| 20260506000343 | -40 | 9.7 | 16.1 | 0.00 | 0.13 | 0.13 | 14 | 1007.1 | |
| 20260505235136 | -40 | 11.3 | 17.7 | 0.00 | 0.13 | 0.13 | 14 | 1007.0 | |
| 20260505233931 | -40 | 12.9 | 20.9 | 0.00 | 0.13 | 0.13 | 14 | 1007.0 | |
| 20260505232724 | -40 | 16.1 | 29.0 | 0.00 | 0.13 | 0.13 | 14 | 1006.9 | |
| 20260505231518 | -40 | 14.5 | 24.1 | 0.00 | 0.13 | 0.13 | 14 | 1006.8 | |
| 20260505230315 | -40 | 14.5 | 27.4 | 0.00 | 0.13 | 0.13 | 14 | 1006.9 | |
| 20260505225106 | -40 | 12.9 | 25.7 | 0.00 | 0.13 | 0.13 | 14 | 1006.9 | |
| 20260505223901 | -40 | 12.9 | 24.1 | 0.00 | 0.13 | 0.13 | 14 | 1006.6 | |
| 20260505222654 | -40 | 12.9 | 19.3 | 0.00 | 0.13 | 0.13 | 14 | 1006.5 | |
| 20260505221448 | -40 | 9.7 | 17.7 | 0.00 | 0.13 | 0.13 | 14 | 1006.6 | |
| 20260505220242 | -40 | 8.0 | 14.5 | 0.00 | 0.13 | 0.13 | 14 | 1006.4 | |
| 20260505215036 | -40 | 8.0 | 16.1 | 0.00 | 0.13 | 0.13 | 14 | 1006.3 | |
| 20260505213832 | -40 | 8.0 | 12.9 | 0.00 | 0.13 | 0.13 | 14 | 1006.2 | |
| 20260505212623 | -40 | 6.4 | 17.7 | 0.00 | 0.13 | 0.13 | 14 | 1006.1 | |
| 20260505211417 | -40 | 4.8 | 8.0 | 0.00 | 0.13 | 0.13 | 14 | 1006.0 | |
| 20260505210212 | -40 | 8.0 | 9.7 | 0.00 | 0.13 | 0.13 | 14 | 1005.9 | |
| 20260505205005 | -40 | 6.4 | 14.5 | 0.05 | 0.13 | 0.13 | 14 | 1005.8 | |
| 20260505203759 | -40 | 9.7 | 12.9 | 0.08 | 0.13 | 0.13 | 14 | 1005.5 | |
| 20260505202553 | -40 | 11.3 | 16.1 | 0.10 | 0.13 | 0.13 | 14 | 1005.4 | |
| 20260505201347 | -40 | 11.3 | 14.5 | 0.13 | 0.13 | 0.13 | 14 | 1005.4 | |
| 20260505200140 | -40 | 8.0 | 14.5 | 0.13 | 0.13 | 0.13 | 14 | 1005.8 | |
| 20260505194935 | -40 | 12.9 | 19.3 | 0.08 | 0.08 | 0.08 | 14 | 1005.7 | |
| 20260505193729 | -40 | 12.9 | 20.9 | 0.05 | 0.05 | 0.05 | 14 | 1005.6 | |
| 20260505192523 | -40 | 14.5 | 20.9 | 0.03 | 0.03 | 0.03 | 14 | 1005.5 | |
| 20260505191316 | -40 | 14.5 | 20.9 | 0.00 | 0.00 | 0.00 | 14 | 1005.3 | |
| 20260505190111 | -40 | 17.7 | 27.4 | 0.00 | 0.00 | 0.00 | 14 | 1005.2 | |
| 20260505184906 | -40 | 19.3 | 32.2 | 0.00 | 0.00 | 0.00 | 14 | 1005.0 | |
| 20260505183706 | -40 | 19.3 | 35.4 | 0.00 | 0.00 | 0.00 | 14 | 1004.8 | |
| 20260505182452 | -40 | 19.3 | 40.2 | 0.00 | 0.00 | 0.00 | 14 | 1004.6 | |
| 20260505181246 | -40 | 22.5 | 35.4 | 0.00 | 0.00 | 0.00 | 14 | 1004.2 | |
| 20260505180040 | -40 | 25.7 | 46.7 | 0.00 | 0.00 | 0.00 | 14 | 1003.6 | |
| 20260505174834 | -40 | 9.7 | 25.7 | 0.00 | 0.00 | 0.00 | 14 | 1003.4 | |
| 20260505173627 | -40 | 9.7 | 14.5 | 0.00 | 0.00 | 0.00 | 14 | 1003.4 | |
| 20260505172424 | -40 | 8.0 | 12.9 | 0.00 | 0.00 | 0.00 | 14 | 1003.4 | |
| 20260505171215 | -40 | 9.7 | 14.5 | 0.00 | 0.00 | 0.00 | 14 | 1003.4 | |
| 20260505170010 | -40 | 8.0 | 12.9 | 0.00 | 0.00 | 0.00 | 14 | 1003.3 | |
| 20260505164803 | -40 | 8.0 | 12.9 | 0.00 | 0.00 | 0.00 | 14 | 1003.3 | |
| 20260505163558 | -40 | 8.0 | 12.9 | 0.00 | 0.00 | 0.00 | 14 | 1003.4 | |
| 20260505162429 | -40 | 9.7 | 14.5 | 0.00 | 0.00 | 0.00 | 14 | 1003.5 | |
| 20260505162352 | -40 | 9.7 | 14.5 | 0.00 | 0.00 | 0.00 | 14 | 1003.5 | |
| 20260505161146 | -40 | 9.7 | 14.5 | 0.00 | 0.00 | 0.00 | 14 | 1003.5 | |
| 20260505152321 | -40 | 8.0 | 17.7 | 0.00 | 0.00 | 0.00 | 14 | 1003.8 | |
| 20260505151114 | -40 | 6.4 | 14.5 | 0.00 | 0.00 | 0.00 | 14 | 1004.0 | |
| 20260505124602 | -40 | 3.2 | 9.7 | 0.00 | 0.00 | 0.00 | 14 | 1005.6 | |
| 20260505123355 | -40 | 9.7 | 17.7 | 0.00 | 0.00 | 0.00 | 14 | 1005.8 | |
| 20260505122149 | -40 | 8.0 | 16.1 | 0.00 | 0.00 | 0.00 | 14 | 1005.8 | |
| 20260505120944 | -40 | 6.4 | 14.5 | 0.00 | 0.00 | 0.00 | 14 | 1006.0 | |
| 20260505115737 | -40 | 8.0 | 16.1 | 0.00 | 0.00 | 0.00 | 14 | 1006.0 | |
| 20260505114535 | -40 | 8.0 | 17.7 | 0.00 | 0.00 | 0.00 | 14 | 1006.1 | |
| 20260505113325 | -40 | 8.0 | 16.1 | 0.00 | 0.00 | 0.00 | 14 | 1006.2 | |
| 20260505112118 | -40 | 8.0 | 14.5 | 0.00 | 0.00 | 0.00 | 14 | 1006.3 | |
| 20260505110913 | -40 | 9.7 | 16.1 | 0.00 | 0.00 | 0.00 | 14 | 1006.3 | |
| 20260505102049 | -40 | 8.0 | 14.5 | 0.00 | 0.00 | 0.00 | 14 | 1006.7 | |
| 20260505100843 | -40 | 8.0 | 16.1 | 0.00 | 0.00 | 0.00 | 14 | 1006.8 | |
| 20260505095637 | -40 | 9.7 | 20.9 | 0.00 | 0.00 | 0.00 | 14 | 1006.9 | |
| 20260505094431 | -40 | 11.3 | 16.1 | 0.00 | 0.00 | 0.00 | 14 | 1007.0 | |
| 20260505093224 | -40 | 11.3 | 17.7 | 0.00 | 0.00 | 0.00 | 14 | 1007.1 | |
| 20260505092018 | -40 | 9.7 | 16.1 | 0.00 | 0.00 | 0.00 | 14 | 1007.2 | |
| 20260505090813 | -40 | 11.3 | 17.7 | 0.00 | 0.00 | 0.00 | 14 | 1007.3 | |
| 20260505085606 | -40 | 11.3 | 16.1 | 0.00 | 0.00 | 0.00 | 14 | 1007.4 | |
| 20260505084401 | -40 | 11.3 | 16.1 | 0.00 | 0.00 | 0.00 | 14 | 1007.3 | |
| 20260505083154 | -40 | 11.3 | 16.1 | 0.00 | 0.00 | 0.00 | 14 | 1007.3 | |
| 20260505081952 | -40 | 9.7 | 16.1 | 0.00 | 0.00 | 0.00 | 14 | 1007.3 | |
| 20260505080747 | -40 | 9.7 | 14.5 | 0.00 | 0.00 | 0.00 | 14 | 1007.4 | |
| 20260505075536 | -40 | 8.0 | 14.5 | 0.00 | 0.00 | 0.00 | 14 | 1007.5 | |
| 20260505074329 | -40 | 6.4 | 12.9 | 0.00 | 0.00 | 0.00 | 14 | 1007.6 | |
| 20260505073128 | -40 | 4.8 | 12.9 | 0.00 | 0.00 | 0.00 | 14 | 1007.6 | |
| 20260505071918 | -40 | 4.8 | 8.0 | 0.00 | 0.00 | 0.00 | 14 | 1007.6 | |
| 20260505070711 | -40 | 4.8 | 8.0 | 0.00 | 0.00 | 0.00 | 14 | 1007.5 | |
| 20260505065505 | -40 | 3.2 | 8.0 | 0.00 | 0.00 | 0.00 | 14 | 1007.6 | |
| 20260505064301 | -40 | 4.8 | 8.0 | 0.00 | 0.00 | 0.00 | 14 | 1007.7 | |
| 20260505063053 | -40 | 3.2 | 6.4 | 0.00 | 0.00 | 0.00 | 14 | 1007.7 | |
| 20260505061847 | -40 | 1.6 | 4.8 | 0.00 | 0.00 | 0.00 | 14 | 1007.7 | |
| 20260505060641 | -40 | 1.6 | 4.8 | 0.00 | 0.00 | 0.00 | 14 | 1007.8 | |
| 20260505055435 | -40 | 3.2 | 4.8 | 0.00 | 0.00 | 0.00 | 14 | 1007.8 | |
| 20260505054230 | -40 | 4.8 | 6.4 | 0.00 | 0.00 | 0.00 | 14 | 1007.9 | |
| 20260505053022 | -40 | 4.8 | 6.4 | 0.00 | 0.00 | 0.00 | 14 | 1007.8 | |
| 20260505051816 | -40 | 1.6 | 4.8 | 0.00 | 0.00 | 0.00 | 14 | 1007.7 | |
| 20260505050613 | -40 | 1.6 | 4.8 | 0.00 | 0.00 | 0.00 | 14 | 1007.7 |